| time (UTC) | temp F | wind direction | speed knots | gust knots | rain 1hr in | rain 24hr in | rain mn in | humidity % | barometer mb |
| 20260509152514 | 60 | 187 | 4.3 | 13.0 | 0.00 | 0.00 | 0.00 | 70 | 1002.8 |
| 20260509152021 | 59 | 168 | 7.0 | 13.0 | 0.00 | 0.00 | 0.00 | 71 | 1002.7 |
| 20260509151529 | 59 | 189 | 4.3 | 11.3 | 0.00 | 0.00 | 0.00 | 72 | 1002.8 |
| 20260509151015 | 59 | 177 | 5.2 | 11.3 | 0.00 | 0.00 | 0.00 | 72 | 1002.9 |
| 20260509150512 | 58 | 164 | 3.5 | 9.6 | 0.00 | 0.00 | 0.00 | 74 | 1003.0 |
| 20260509150029 | 58 | 174 | 4.3 | 9.6 | 0.00 | 0.00 | 0.00 | 76 | 1002.9 |
| 20260509145516 | 57 | 181 | 2.6 | 7.0 | 0.00 | 0.00 | 0.00 | 79 | 1003.1 |
| 20260509145013 | 56 | 139 | 3.5 | 7.0 | 0.00 | 0.00 | 0.00 | 80 | 1003.2 |
| 20260509144532 | 56 | 165 | 2.6 | 5.2 | 0.00 | 0.00 | 0.00 | 82 | 1003.3 |
| 20260509144014 | 55 | 200 | 1.7 | 4.3 | 0.00 | 0.00 | 0.00 | 84 | 1003.2 |
| 20260509143514 | 55 | 202 | 1.7 | 4.3 | 0.00 | 0.00 | 0.00 | 84 | 1003.2 |
| 20260509143044 | 55 | 136 | 0.9 | 4.3 | 0.00 | 0.00 | 0.00 | 84 | 1003.5 |
| 20260509142514 | 54 | 136 | 0.0 | 1.7 | 0.00 | 0.00 | 0.00 | 84 | 1003.6 |
| 20260509142015 | 54 | 0 | 0.0 | 3.5 | 0.00 | 0.00 | 0.00 | 86 | 1003.8 |
| 20260509141540 | 54 | 8 | 0.0 | 6.1 | 0.00 | 0.00 | 0.00 | 86 | 1003.9 |
| 20260509141014 | 54 | 266 | 0.9 | 7.8 | 0.00 | 0.00 | 0.00 | 86 | 1004.1 |
| 20260509140516 | 54 | 196 | 2.6 | 11.3 | 0.00 | 0.00 | 0.00 | 87 | 1003.9 |
| 20260509140030 | 53 | 174 | 5.2 | 11.3 | 0.00 | 0.00 | 0.00 | 87 | 1003.4 |
| 20260509135515 | 53 | 161 | 6.1 | 11.3 | 0.00 | 0.00 | 0.00 | 87 | 1003.4 |
| 20260509135014 | 53 | 198 | 4.3 | 8.7 | 0.00 | 0.00 | 0.00 | 87 | 1003.8 |
| 20260509134533 | 53 | 179 | 3.5 | 9.6 | 0.00 | 0.00 | 0.00 | 88 | 1003.6 |
| 20260509134015 | 53 | 190 | 6.1 | 13.0 | 0.00 | 0.00 | 0.00 | 88 | 1003.8 |
| 20260509133515 | 53 | 181 | 5.2 | 13.0 | 0.00 | 0.00 | 0.00 | 88 | 1003.8 |
| 20260509133031 | 53 | 189 | 3.5 | 8.7 | 0.00 | 0.00 | 0.00 | 88 | 1003.9 |
| 20260509132514 | 53 | 160 | 2.6 | 11.3 | 0.00 | 0.00 | 0.00 | 89 | 1004.1 |
| 20260509132014 | 53 | 197 | 4.3 | 11.3 | 0.00 | 0.00 | 0.00 | 88 | 1004.1 |
| 20260509131537 | 53 | 150 | 6.1 | 11.3 | 0.00 | 0.00 | 0.00 | 88 | 1004.1 |
| 20260509131018 | 53 | 205 | 3.5 | 8.7 | 0.00 | 0.00 | 0.00 | 88 | 1004.1 |
| 20260509130515 | 53 | 160 | 3.5 | 10.4 | 0.00 | 0.00 | 0.00 | 88 | 1004.1 |
| 20260509130034 | 53 | 195 | 4.3 | 10.4 | 0.00 | 0.00 | 0.00 | 88 | 1004.1 |
| 20260509125518 | 53 | 208 | 5.2 | 9.6 | 0.00 | 0.00 | 0.00 | 88 | 1004.1 |
| 20260509125015 | 53 | 213 | 5.2 | 8.7 | 0.00 | 0.00 | 0.00 | 89 | 1004.0 |
| 20260509124535 | 52 | 179 | 4.3 | 12.2 | 0.00 | 0.00 | 0.00 | 89 | 1004.1 |
| 20260509124013 | 52 | 229 | 5.2 | 12.2 | 0.00 | 0.00 | 0.00 | 89 | 1004.2 |
| 20260509123513 | 52 | 180 | 2.6 | 7.8 | 0.00 | 0.00 | 0.00 | 90 | 1004.3 |
| 20260509123043 | 52 | 186 | 3.5 | 8.7 | 0.00 | 0.00 | 0.00 | 91 | 1004.5 |
| 20260509122514 | 52 | 176 | 2.6 | 10.4 | 0.00 | 0.00 | 0.00 | 92 | 1004.5 |
| 20260509122015 | 51 | 0 | 3.5 | 10.4 | 0.00 | 0.00 | 0.00 | 92 | 1004.4 |
| 20260509121535 | 51 | 174 | 5.2 | 10.4 | 0.00 | 0.00 | 0.00 | 93 | 1004.4 |
| 20260509121013 | 50 | 198 | 2.6 | 8.7 | 0.00 | 0.00 | 0.00 | 94 | 1004.5 |
| 20260509120515 | 50 | 191 | 1.7 | 7.0 | 0.00 | 0.00 | 0.00 | 94 | 1004.5 |
| 20260509120030 | 49 | 198 | 3.5 | 7.0 | 0.00 | 0.00 | 0.00 | 94 | 1004.4 |
| 20260509115514 | 49 | 188 | 2.6 | 5.2 | 0.00 | 0.00 | 0.00 | 94 | 1004.5 |
| 20260509115022 | 49 | 193 | 0.9 | 6.1 | 0.00 | 0.00 | 0.00 | 94 | 1004.4 |
| 20260509114530 | 49 | 207 | 2.6 | 6.1 | 0.00 | 0.00 | 0.00 | 94 | 1004.3 |
| 20260509114014 | 49 | 195 | 1.7 | 5.2 | 0.00 | 0.00 | 0.00 | 94 | 1004.3 |
| 20260509113515 | 49 | 169 | 1.7 | 6.1 | 0.00 | 0.00 | 0.00 | 94 | 1004.3 |
| 20260509113037 | 48 | 166 | 2.6 | 6.1 | 0.00 | 0.00 | 0.00 | 95 | 1004.3 |
| 20260509112515 | 48 | 162 | 1.7 | 3.5 | 0.00 | 0.00 | 0.00 | 95 | 1004.4 |
| 20260509112013 | 48 | 193 | 1.7 | 3.5 | 0.00 | 0.00 | 0.00 | 95 | 1004.5 |
| 20260509111541 | 48 | 209 | 0.9 | 1.7 | 0.00 | 0.00 | 0.00 | 95 | 1004.5 |
| 20260509111017 | 47 | 149 | 0.9 | 1.7 | 0.00 | 0.00 | 0.00 | 95 | 1004.5 |
| 20260509110517 | 47 | 188 | 0.0 | 1.7 | 0.00 | 0.00 | 0.00 | 95 | 1004.5 |
| 20260509110034 | 47 | 0 | 0.0 | 1.7 | 0.00 | 0.00 | 0.00 | 95 | 1004.5 |
| 20260509105514 | 46 | 156 | 0.9 | 1.7 | 0.00 | 0.00 | 0.00 | 95 | 1004.4 |
| 20260509105015 | 46 | 176 | 0.0 | 0.9 | 0.00 | 0.00 | 0.00 | 95 | 1004.5 |
| 20260509104531 | 46 | 0 | 0.0 | 1.7 | 0.00 | 0.00 | 0.00 | 95 | 1004.5 |
| 20260509104014 | 46 | 208 | 0.0 | 1.7 | 0.00 | 0.00 | 0.00 | 95 | 1004.6 |
| 20260509103519 | 45 | 0 | 0.9 | 1.7 | 0.00 | 0.00 | 0.00 | 95 | 1004.5 |
| 20260509103037 | 45 | 154 | 0.0 | 0.9 | 0.00 | 0.00 | 0.00 | 95 | 1004.6 |
| 20260509102513 | 45 | 165 | 0.0 | 0.9 | 0.00 | 0.00 | 0.00 | 95 | 1004.6 |
| 20260509102016 | 45 | 0 | 0.0 | 0.9 | 0.00 | 0.00 | 0.00 | 94 | 1004.6 |
| 20260509101533 | 45 | 0 | 0.0 | 0.0 | 0.00 | 0.00 | 0.00 | 94 | 1004.6 |
| 20260509101015 | 45 | 0 | 0.0 | 0.0 | 0.00 | 0.00 | 0.00 | 94 | 1004.7 |
| 20260509100515 | 45 | 0 | 0.0 | 0.0 | 0.00 | 0.00 | 0.00 | 94 | 1004.8 |
| 20260509100035 | 46 | 0 | 0.0 | 0.0 | 0.00 | 0.00 | 0.00 | 94 | 1004.7 |
| 20260509095514 | 46 | 0 | 0.0 | 0.0 | 0.00 | 0.00 | 0.00 | 94 | 1004.9 |
| 20260509095015 | 46 | 0 | 0.0 | 0.0 | 0.00 | 0.00 | 0.00 | 93 | 1005.0 |
| 20260509094538 | 46 | 0 | 0.0 | 0.0 | 0.00 | 0.00 | 0.00 | 93 | 1005.0 |
| 20260509094014 | 46 | 0 | 0.0 | 0.9 | 0.00 | 0.00 | 0.00 | 93 | 1005.0 |
| 20260509093514 | 46 | 0 | 0.0 | 0.9 | 0.00 | 0.00 | 0.00 | 93 | 1005.1 |
| 20260509093033 | 46 | 193 | 0.0 | 0.9 | 0.00 | 0.00 | 0.00 | 93 | 1005.2 |
| 20260509092513 | 46 | 0 | 0.0 | 1.7 | 0.00 | 0.00 | 0.00 | 93 | 1005.2 |
| 20260509092015 | 46 | 186 | 0.9 | 1.7 | 0.00 | 0.00 | 0.00 | 93 | 1005.3 |
| 20260509091534 | 46 | 174 | 0.0 | 1.7 | 0.00 | 0.00 | 0.00 | 92 | 1005.2 |
| 20260509091014 | 46 | 191 | 0.0 | 1.7 | 0.00 | 0.00 | 0.00 | 92 | 1005.2 |
| 20260509090517 | 45 | 177 | 0.0 | 0.9 | 0.00 | 0.00 | 0.00 | 92 | 1005.3 |
| 20260509090032 | 45 | 0 | 0.0 | 0.9 | 0.00 | 0.00 | 0.00 | 92 | 1005.2 |
| 20260509085517 | 45 | 0 | 0.0 | 1.7 | 0.00 | 0.00 | 0.00 | 91 | 1005.3 |
| 20260509085016 | 45 | 176 | 0.9 | 1.7 | 0.00 | 0.00 | 0.00 | 92 | 1005.3 |
| 20260509084531 | 45 | 167 | 0.9 | 1.7 | 0.00 | 0.00 | 0.00 | 92 | 1005.1 |
| 20260509084015 | 45 | 172 | 0.0 | 0.9 | 0.00 | 0.00 | 0.00 | 92 | 1005.3 |
| 20260509083513 | 44 | 165 | 0.0 | 0.9 | 0.00 | 0.00 | 0.00 | 91 | 1005.2 |
| 20260509083040 | 44 | 0 | 0.0 | 0.9 | 0.00 | 0.00 | 0.00 | 91 | 1005.2 |
| 20260509082513 | 44 | 0 | 0.0 | 0.0 | 0.00 | 0.00 | 0.00 | 91 | 1005.1 |
| 20260509082014 | 44 | 0 | 0.0 | 0.0 | 0.00 | 0.00 | 0.00 | 90 | 1005.2 |
| 20260509081534 | 44 | 0 | 0.0 | 0.0 | 0.00 | 0.00 | 0.00 | 90 | 1005.2 |
| 20260509081016 | 44 | 0 | 0.0 | 0.0 | 0.00 | 0.00 | 0.00 | 89 | 1005.1 |
| 20260509080517 | 44 | 0 | 0.0 | 0.0 | 0.00 | 0.00 | 0.00 | 89 | 1005.3 |
| 20260509080034 | 44 | 0 | 0.0 | 0.0 | 0.00 | 0.00 | 0.00 | 89 | 1005.3 |
| 20260509075515 | 44 | 0 | 0.0 | 0.0 | 0.00 | 0.00 | 0.00 | 89 | 1005.3 |
| 20260509075019 | 44 | 0 | 0.0 | 0.0 | 0.00 | 0.00 | 0.00 | 88 | 1005.3 |
| 20260509074532 | 44 | 0 | 0.0 | 0.0 | 0.00 | 0.00 | 0.00 | 88 | 1005.3 |
| 20260509074021 | 44 | 0 | 0.0 | 0.0 | 0.00 | 0.00 | 0.00 | 87 | 1005.3 |
| 20260509073516 | 45 | 0 | 0.0 | 0.0 | 0.00 | 0.00 | 0.00 | 87 | 1005.4 |
| 20260509073036 | 45 | 0 | 0.0 | 0.0 | 0.00 | 0.00 | 0.00 | 88 | 1005.6 |
| 20260509072516 | 45 | 0 | 0.0 | 0.0 | 0.00 | 0.00 | 0.00 | 86 | 1005.7 |
| 20260509072015 | 45 | 0 | 0.0 | 0.0 | 0.00 | 0.00 | 0.00 | 84 | 1005.7 |
| 20260509071532 | 46 | 0 | 0.0 | 0.0 | 0.00 | 0.00 | 0.00 | 84 | 1005.7 |
| 20260509071015 | 46 | 0 | 0.0 | 0.9 | 0.00 | 0.00 | 0.00 | 83 | 1005.7 |
| 20260509070513 | 46 | 0 | 0.0 | 0.9 | 0.00 | 0.00 | 0.00 | 82 | 1005.7 |
| 20260509070030 | 47 | 0 | 0.0 | 1.7 | 0.00 | 0.00 | 0.00 | 82 | 1005.8 |
| 20260509065520 | 47 | 169 | 0.0 | 1.7 | 0.00 | 0.00 | 0.00 | 81 | 1005.8 |
| 20260509065015 | 47 | 170 | 0.9 | 1.7 | 0.00 | 0.00 | 0.00 | 81 | 1005.8 |
| 20260509064532 | 47 | 186 | 0.9 | 1.7 | 0.00 | 0.00 | 0.00 | 81 | 1005.8 |
| 20260509064017 | 47 | 194 | 0.9 | 1.7 | 0.00 | 0.00 | 0.00 | 80 | 1005.9 |
| 20260509063513 | 47 | 199 | 0.9 | 1.7 | 0.00 | 0.00 | 0.00 | 79 | 1006.0 |
| 20260509063036 | 47 | 183 | 0.0 | 0.9 | 0.00 | 0.00 | 0.00 | 78 | 1006.0 |
| 20260509062515 | 47 | 176 | 0.0 | 0.9 | 0.00 | 0.00 | 0.00 | 77 | 1006.0 |
| 20260509062016 | 47 | 183 | 0.0 | 0.9 | 0.00 | 0.00 | 0.00 | 76 | 1006.0 |
| 20260509061542 | 47 | 177 | 0.0 | 1.7 | 0.00 | 0.00 | 0.00 | 75 | 1006.1 |
| 20260509061015 | 47 | 167 | 0.9 | 1.7 | 0.00 | 0.00 | 0.00 | 74 | 1006.0 |
| 20260509060516 | 47 | 191 | 0.0 | 1.7 | 0.00 | 0.00 | 0.00 | 73 | 1006.2 |
| 20260509060031 | 47 | 169 | 0.9 | 1.7 | 0.00 | 0.00 | 0.00 | 72 | 1006.3 |
| 20260509055520 | 47 | 179 | 0.9 | 2.6 | 0.00 | 0.00 | 0.00 | 70 | 1006.3 |
| 20260509055019 | 47 | 134 | 0.9 | 2.6 | 0.00 | 0.00 | 0.00 | 69 | 1006.4 |
| 20260509054529 | 47 | 169 | 0.9 | 2.6 | 0.00 | 0.00 | 0.00 | 69 | 1006.5 |
| 20260509054014 | 46 | 186 | 0.9 | 2.6 | 0.00 | 0.00 | 0.00 | 70 | 1006.5 |
| 20260509053515 | 46 | 172 | 0.9 | 2.6 | 0.00 | 0.00 | 0.00 | 70 | 1006.6 |
| 20260509053050 | 46 | 155 | 0.0 | 0.0 | 0.00 | 0.00 | 0.00 | 70 | 1006.5 |
| 20260509052514 | 46 | 0 | 0.0 | 0.9 | 0.00 | 0.00 | 0.00 | 69 | 1006.5 |
| 20260509052016 | 46 | 0 | 0.0 | 0.9 | 0.00 | 0.00 | 0.00 | 68 | 1006.5 |
| 20260509051531 | 47 | 193 | 0.0 | 0.9 | 0.00 | 0.00 | 0.00 | 68 | 1006.6 |
| 20260509051016 | 46 | 0 | 0.0 | 0.9 | 0.00 | 0.00 | 0.00 | 67 | 1006.7 |
| 20260509050514 | 47 | 0 | 0.0 | 0.9 | 0.00 | 0.00 | 0.00 | 69 | 1006.7 |
| 20260509050031 | 47 | 169 | 0.0 | 0.9 | 0.00 | 0.00 | 0.00 | 68 | 1006.7 |
| 20260509045515 | 47 | 158 | 0.0 | 0.9 | 0.00 | 0.00 | 0.00 | 69 | 1006.7 |
| 20260509045015 | 46 | 172 | 0.9 | 0.9 | 0.00 | 0.00 | 0.00 | 71 | 1006.8 |
| 20260509044533 | 46 | 164 | 0.0 | 0.9 | 0.00 | 0.00 | 0.00 | 73 | 1006.8 |
| 20260509044015 | 46 | 0 | 0.0 | 0.9 | 0.00 | 0.00 | 0.00 | 74 | 1006.9 |
| 20260509043516 | 46 | 152 | 0.0 | 0.9 | 0.00 | 0.00 | 0.00 | 78 | 1006.9 |
| 20260509043031 | 46 | 152 | 0.0 | 0.9 | 0.00 | 0.00 | 0.00 | 77 | 1006.9 |
| 20260509042513 | 45 | 0 | 0.0 | 0.0 | 0.00 | 0.00 | 0.00 | 79 | 1006.8 |
| 20260509042031 | 45 | 0 | 0.0 | 0.0 | 0.00 | 0.00 | 0.00 | 77 | 1006.9 |
| 20260509041530 | 45 | 0 | 0.0 | 0.0 | 0.00 | 0.00 | 0.00 | 77 | 1007.0 |
| 20260509041016 | 45 | 0 | 0.0 | 0.0 | 0.00 | 0.00 | 0.00 | 79 | 1007.0 |
| 20260509040515 | 46 | 0 | 0.0 | 0.0 | 0.00 | 0.00 | 0.00 | 78 | 1007.0 |
| 20260509040036 | 46 | 0 | 0.0 | 0.0 | 0.00 | 0.00 | 0.00 | 77 | 1007.0 |
| 20260509035514 | 46 | 0 | 0.0 | 0.0 | 0.00 | 0.00 | 0.00 | 78 | 1007.1 |
| 20260509035015 | 46 | 0 | 0.0 | 0.0 | 0.00 | 0.00 | 0.00 | 81 | 1007.0 |
| 20260509034535 | 46 | 0 | 0.0 | 0.0 | 0.00 | 0.00 | 0.00 | 81 | 1007.1 |
| 20260509034016 | 47 | 0 | 0.0 | 0.0 | 0.00 | 0.00 | 0.00 | 80 | 1007.1 |
| 20260509033515 | 47 | 0 | 0.0 | 0.0 | 0.00 | 0.00 | 0.00 | 78 | 1007.0 |
| 20260509033031 | 47 | 0 | 0.0 | 0.0 | 0.00 | 0.00 | 0.00 | 79 | 1007.0 |
| 20260509032515 | 47 | 0 | 0.0 | 0.0 | 0.00 | 0.00 | 0.00 | 80 | 1007.1 |
| 20260509032020 | 47 | 0 | 0.0 | 0.0 | 0.00 | 0.00 | 0.00 | 77 | 1007.1 |
| 20260509031533 | 48 | 0 | 0.0 | 0.0 | 0.00 | 0.00 | 0.00 | 78 | 1007.2 |
| 20260509031014 | 48 | 0 | 0.0 | 0.0 | 0.00 | 0.00 | 0.00 | 75 | 1007.4 |
| 20260509030518 | 48 | 0 | 0.0 | 0.0 | 0.00 | 0.00 | 0.00 | 72 | 1007.4 |
| 20260509030030 | 49 | 0 | 0.0 | 0.0 | 0.00 | 0.00 | 0.00 | 73 | 1007.5 |
| 20260509025515 | 49 | 0 | 0.0 | 0.0 | 0.00 | 0.00 | 0.00 | 70 | 1007.5 |
| 20260509025013 | 49 | 0 | 0.0 | 0.0 | 0.00 | 0.00 | 0.00 | 67 | 1007.6 |
| 20260509024535 | 50 | 0 | 0.0 | 0.0 | 0.00 | 0.00 | 0.00 | 64 | 1007.5 |
| 20260509024016 | 50 | 0 | 0.0 | 0.0 | 0.00 | 0.00 | 0.00 | 68 | 1007.5 |
| 20260509023515 | 51 | 0 | 0.0 | 0.0 | 0.00 | 0.00 | 0.00 | 64 | 1007.6 |
| 20260509023035 | 51 | 0 | 0.0 | 0.0 | 0.00 | 0.00 | 0.00 | 58 | 1007.5 |
| 20260509022520 | 52 | 0 | 0.0 | 0.0 | 0.00 | 0.00 | 0.00 | 58 | 1007.4 |
| 20260509022015 | 52 | 0 | 0.0 | 0.0 | 0.00 | 0.00 | 0.00 | 60 | 1007.4 |
| 20260509021530 | 53 | 0 | 0.0 | 0.0 | 0.00 | 0.00 | 0.00 | 55 | 1007.4 |
| 20260509021013 | 53 | 0 | 0.0 | 0.0 | 0.00 | 0.00 | 0.00 | 51 | 1007.5 |
| 20260509020516 | 53 | 0 | 0.0 | 0.0 | 0.00 | 0.00 | 0.00 | 47 | 1007.5 |
| 20260509020036 | 53 | 0 | 0.0 | 0.0 | 0.00 | 0.00 | 0.00 | 47 | 1007.5 |
| 20260509015514 | 53 | 0 | 0.0 | 0.0 | 0.00 | 0.00 | 0.00 | 48 | 1007.4 |
| 20260509015015 | 54 | 0 | 0.0 | 0.0 | 0.00 | 0.00 | 0.00 | 50 | 1007.4 |
| 20260509014535 | 54 | 0 | 0.0 | 0.0 | 0.00 | 0.00 | 0.00 | 49 | 1007.4 |
| 20260509014021 | 55 | 0 | 0.0 | 0.9 | 0.00 | 0.00 | 0.00 | 50 | 1007.3 |
| 20260509013521 | 55 | 0 | 0.0 | 0.9 | 0.00 | 0.00 | 0.00 | 48 | 1007.2 |
| 20260509013035 | 55 | 0 | 0.0 | 0.9 | 0.00 | 0.00 | 0.00 | 50 | 1007.3 |
| 20260509012515 | 56 | 0 | 0.0 | 0.9 | 0.00 | 0.00 | 0.00 | 48 | 1007.1 |
| 20260509012015 | 56 | 0 | 0.0 | 0.9 | 0.00 | 0.00 | 0.00 | 45 | 1007.1 |
| 20260509011531 | 56 | 0 | 0.0 | 0.9 | 0.00 | 0.00 | 0.00 | 45 | 1007.0 |
| 20260509011015 | 56 | 0 | 0.0 | 0.0 | 0.00 | 0.00 | 0.00 | 49 | 1006.9 |
| 20260509010514 | 57 | 0 | 0.0 | 0.0 | 0.00 | 0.00 | 0.00 | 44 | 1006.9 |
| 20260509010032 | 58 | 0 | 0.0 | 0.0 | 0.00 | 0.00 | 0.00 | 44 | 1006.8 |
| 20260509005516 | 58 | 0 | 0.0 | 0.9 | 0.00 | 0.00 | 0.00 | 40 | 1006.7 |
| 20260509005015 | 59 | 0 | 0.0 | 0.9 | 0.00 | 0.00 | 0.00 | 40 | 1006.6 |
| 20260509004537 | 59 | 0 | 0.0 | 0.0 | 0.00 | 0.00 | 0.00 | 39 | 1006.6 |
| 20260509004016 | 60 | 0 | 0.0 | 0.9 | 0.00 | 0.00 | 0.00 | 37 | 1006.7 |
| 20260509003517 | 60 | 0 | 0.0 | 1.7 | 0.00 | 0.00 | 0.00 | 36 | 1006.7 |
| 20260509003035 | 60 | 265 | 0.0 | 1.7 | 0.00 | 0.00 | 0.00 | 35 | 1006.6 |
| 20260509002516 | 60 | 0 | 0.0 | 0.9 | 0.00 | 0.00 | 0.00 | 35 | 1006.6 |
| 20260509002014 | 61 | 259 | 0.0 | 2.6 | 0.00 | 0.00 | 0.00 | 34 | 1006.6 |
| 20260509001531 | 61 | 0 | 0.0 | 2.6 | 0.00 | 0.00 | 0.00 | 35 | 1006.6 |
| 20260509001015 | 61 | 0 | 0.0 | 5.2 | 0.00 | 0.00 | 0.00 | 34 | 1006.5 |
| 20260509000516 | 61 | 240 | 0.9 | 6.1 | 0.00 | 0.00 | 0.00 | 36 | 1006.5 |
| 20260509000031 | 62 | 0 | 1.7 | 6.1 | 0.00 | 0.00 | 0.00 | 35 | 1006.5 |
| 20260508235514 | 62 | 198 | 1.7 | 6.1 | 0.00 | 0.00 | 0.00 | 35 | 1006.5 |
| 20260508235016 | 62 | 184 | 3.5 | 6.1 | 0.00 | 0.00 | 0.00 | 32 | 1006.5 |
| 20260508234532 | 62 | 219 | 1.7 | 6.1 | 0.00 | 0.00 | 0.00 | 32 | 1006.5 |
| 20260508234014 | 62 | 162 | 0.0 | 6.1 | 0.00 | 0.00 | 0.00 | 34 | 1006.4 |
| 20260508233515 | 62 | 258 | 1.7 | 6.1 | 0.00 | 0.00 | 0.00 | 34 | 1006.5 |
| 20260508233034 | 62 | 233 | 0.9 | 5.2 | 0.00 | 0.00 | 0.00 | 34 | 1006.5 |
| 20260508232515 | 62 | 236 | 0.0 | 5.2 | 0.00 | 0.00 | 0.00 | 34 | 1006.5 |
| 20260508232016 | 62 | 263 | 2.6 | 8.7 | 0.00 | 0.00 | 0.00 | 33 | 1006.6 |
| 20260508231529 | 62 | 221 | 2.6 | 8.7 | 0.00 | 0.00 | 0.00 | 32 | 1006.7 |
| 20260508231016 | 62 | 224 | 2.6 | 8.7 | 0.00 | 0.00 | 0.00 | 33 | 1006.6 |
| 20260508230516 | 62 | 257 | 2.6 | 10.4 | 0.00 | 0.00 | 0.00 | 33 | 1006.6 |
| 20260508230033 | 62 | 221 | 1.7 | 10.4 | 0.00 | 0.00 | 0.00 | 31 | 1006.6 |
| 20260508225521 | 63 | 271 | 6.1 | 10.4 | 0.00 | 0.00 | 0.00 | 31 | 1006.5 |
| 20260508225014 | 63 | 264 | 3.5 | 8.7 | 0.00 | 0.00 | 0.00 | 31 | 1006.6 |
| 20260508224531 | 63 | 245 | 2.6 | 8.7 | 0.00 | 0.00 | 0.00 | 32 | 1006.7 |
| 20260508224016 | 63 | 142 | 2.6 | 8.7 | 0.00 | 0.00 | 0.00 | 32 | 1006.7 |
| 20260508223516 | 63 | 200 | 2.6 | 8.7 | 0.00 | 0.00 | 0.00 | 32 | 1006.7 |
| 20260508223039 | 63 | 247 | 3.5 | 8.7 | 0.00 | 0.00 | 0.00 | 32 | 1006.8 |
| 20260508222514 | 63 | 202 | 0.0 | 6.1 | 0.00 | 0.00 | 0.00 | 32 | 1006.8 |
| 20260508222018 | 62 | 184 | 0.9 | 6.1 | 0.00 | 0.00 | 0.00 | 34 | 1006.8 |
| 20260508221535 | 61 | 163 | 2.6 | 6.1 | 0.00 | 0.00 | 0.00 | 33 | 1006.8 |
| 20260508221016 | 62 | 0 | 2.6 | 8.7 | 0.00 | 0.00 | 0.00 | 32 | 1006.9 |
| 20260508220517 | 62 | 243 | 3.5 | 10.4 | 0.00 | 0.00 | 0.00 | 32 | 1006.9 |
| 20260508220038 | 63 | 198 | 3.5 | 10.4 | 0.00 | 0.00 | 0.00 | 32 | 1006.9 |
| 20260508215514 | 63 | 200 | 5.2 | 13.9 | 0.00 | 0.00 | 0.00 | 31 | 1007.0 |
| 20260508215014 | 63 | 205 | 4.3 | 13.9 | 0.00 | 0.00 | 0.00 | 33 | 1007.0 |
| 20260508214529 | 63 | 233 | 5.2 | 12.2 | 0.00 | 0.00 | 0.00 | 29 | 1007.1 |
| 20260508214016 | 63 | 255 | 1.7 | 8.7 | 0.00 | 0.00 | 0.00 | 32 | 1007.0 |
| 20260508213516 | 63 | 240 | 1.7 | 12.2 | 0.00 | 0.00 | 0.00 | 29 | 1007.0 |
| 20260508213032 | 63 | 218 | 3.5 | 12.2 | 0.00 | 0.00 | 0.00 | 31 | 1007.0 |
| 20260508212516 | 62 | 298 | 5.2 | 12.2 | 0.00 | 0.00 | 0.00 | 30 | 1007.1 |
| 20260508212013 | 62 | 207 | 4.3 | 9.6 | 0.00 | 0.00 | 0.00 | 30 | 1007.1 |
| 20260508211538 | 62 | 289 | 4.3 | 9.6 | 0.00 | 0.00 | 0.00 | 29 | 1007.1 |
| 20260508211015 | 62 | 179 | 2.6 | 8.7 | 0.00 | 0.00 | 0.00 | 30 | 1007.1 |
| 20260508210514 | 62 | 204 | 2.6 | 10.4 | 0.00 | 0.00 | 0.00 | 32 | 1007.2 |
| 20260508210030 | 62 | 230 | 4.3 | 10.4 | 0.00 | 0.00 | 0.00 | 30 | 1007.3 |
| 20260508205518 | 62 | 226 | 5.2 | 10.4 | 0.00 | 0.00 | 0.00 | 32 | 1007.2 |
| 20260508205015 | 62 | 221 | 3.5 | 9.6 | 0.00 | 0.00 | 0.00 | 32 | 1007.4 |
| 20260508204530 | 62 | 221 | 1.7 | 11.3 | 0.00 | 0.00 | 0.00 | 32 | 1007.4 |
| 20260508204015 | 62 | 178 | 4.3 | 11.3 | 0.00 | 0.00 | 0.00 | 31 | 1007.5 |
| 20260508203514 | 62 | 241 | 4.3 | 11.3 | 0.00 | 0.00 | 0.00 | 32 | 1007.7 |
| 20260508203031 | 62 | 236 | 4.3 | 8.7 | 0.00 | 0.00 | 0.00 | 32 | 1007.7 |
| 20260508202516 | 62 | 214 | 1.7 | 8.7 | 0.00 | 0.00 | 0.00 | 30 | 1007.7 |
| 20260508202015 | 63 | 200 | 1.7 | 8.7 | 0.00 | 0.00 | 0.00 | 30 | 1007.8 |
| 20260508201535 | 62 | 251 | 1.7 | 8.7 | 0.00 | 0.00 | 0.00 | 32 | 1007.9 |
| 20260508201014 | 62 | 283 | 2.6 | 6.1 | 0.00 | 0.00 | 0.00 | 31 | 1007.9 |
| 20260508200514 | 61 | 0 | 0.0 | 6.1 | 0.00 | 0.00 | 0.00 | 34 | 1008.0 |
| 20260508200032 | 60 | 236 | 1.7 | 7.0 | 0.00 | 0.00 | 0.00 | 31 | 1008.2 |
| 20260508195512 | 60 | 221 | 3.5 | 10.4 | 0.00 | 0.00 | 0.00 | 31 | 1008.3 |
| 20260508195016 | 60 | 231 | 4.3 | 10.4 | 0.00 | 0.00 | 0.00 | 31 | 1008.3 |
| 20260508194532 | 60 | 229 | 3.5 | 10.4 | 0.00 | 0.00 | 0.00 | 31 | 1008.4 |
| 20260508194013 | 60 | 214 | 1.7 | 11.3 | 0.00 | 0.00 | 0.00 | 29 | 1008.6 |
| 20260508193516 | 60 | 285 | 3.5 | 11.3 | 0.00 | 0.00 | 0.00 | 31 | 1008.7 |
| 20260508193039 | 60 | 193 | 5.2 | 11.3 | 0.00 | 0.00 | 0.00 | 30 | 1008.7 |
| 20260508192514 | 60 | 180 | 4.3 | 9.6 | 0.00 | 0.00 | 0.00 | 31 | 1008.8 |
| 20260508192018 | 60 | 176 | 1.7 | 11.3 | 0.00 | 0.00 | 0.00 | 32 | 1008.8 |
| 20260508191538 | 60 | 215 | 2.6 | 11.3 | 0.00 | 0.00 | 0.00 | 32 | 1008.8 |
| 20260508191014 | 60 | 215 | 2.6 | 11.3 | 0.00 | 0.00 | 0.00 | 31 | 1008.9 |
| 20260508190516 | 60 | 227 | 0.9 | 5.2 | 0.00 | 0.00 | 0.00 | 31 | 1008.9 |
| 20260508190034 | 59 | 218 | 0.9 | 8.7 | 0.00 | 0.00 | 0.00 | 31 | 1008.9 |
| 20260508185513 | 59 | 225 | 1.7 | 12.2 | 0.00 | 0.00 | 0.00 | 30 | 1009.0 |
| 20260508185014 | 60 | 224 | 4.3 | 12.2 | 0.00 | 0.00 | 0.00 | 30 | 1009.2 |
| 20260508184532 | 60 | 276 | 2.6 | 11.3 | 0.00 | 0.00 | 0.00 | 31 | 1009.2 |
| 20260508184013 | 59 | 219 | 4.3 | 12.2 | 0.00 | 0.00 | 0.00 | 29 | 1009.2 |
| 20260508183516 | 60 | 221 | 5.2 | 12.2 | 0.00 | 0.00 | 0.00 | 29 | 1009.3 |
| 20260508183034 | 60 | 122 | 3.5 | 10.4 | 0.00 | 0.00 | 0.00 | 30 | 1009.3 |
| 20260508182514 | 61 | 240 | 1.7 | 7.0 | 0.00 | 0.00 | 0.00 | 30 | 1009.3 |
| 20260508182014 | 61 | 238 | 1.7 | 7.8 | 0.00 | 0.00 | 0.00 | 30 | 1009.3 |
| 20260508181531 | 60 | 258 | 0.9 | 7.8 | 0.00 | 0.00 | 0.00 | 30 | 1009.4 |
| 20260508181013 | 60 | 226 | 1.7 | 7.8 | 0.00 | 0.00 | 0.00 | 33 | 1009.5 |
| 20260508180512 | 60 | 248 | 2.6 | 7.0 | 0.00 | 0.00 | 0.00 | 29 | 1009.6 |
| 20260508180032 | 59 | 0 | 0.0 | 9.6 | 0.00 | 0.00 | 0.00 | 30 | 1009.5 |
| 20260508175514 | 59 | 205 | 4.3 | 9.6 | 0.00 | 0.00 | 0.00 | 31 | 1009.7 |
| 20260508175014 | 60 | 207 | 2.6 | 7.8 | 0.00 | 0.00 | 0.00 | 31 | 1009.7 |
| 20260508174527 | 59 | 0 | 2.6 | 10.4 | 0.00 | 0.00 | 0.00 | 30 | 1009.8 |
| 20260508174014 | 59 | 195 | 5.2 | 10.4 | 0.00 | 0.00 | 0.00 | 31 | 1010.0 |
| 20260508173513 | 60 | 250 | 1.7 | 7.0 | 0.00 | 0.00 | 0.00 | 31 | 1010.0 |
| 20260508173030 | 59 | 248 | 0.9 | 10.4 | 0.00 | 0.00 | 0.00 | 30 | 1010.0 |
| 20260508172513 | 59 | 278 | 0.9 | 10.4 | 0.00 | 0.00 | 0.00 | 31 | 1010.1 |
| 20260508172013 | 58 | 254 | 5.2 | 10.4 | 0.00 | 0.00 | 0.00 | 30 | 1010.4 |
| 20260508171536 | 59 | 175 | 4.3 | 10.4 | 0.00 | 0.00 | 0.00 | 29 | 1010.4 |
| 20260508171014 | 59 | 184 | 1.7 | 7.0 | 0.00 | 0.00 | 0.00 | 31 | 1010.4 |
| 20260508170514 | 59 | 276 | 0.9 | 6.1 | 0.00 | 0.00 | 0.00 | 31 | 1010.3 |
| 20260508170030 | 58 | 0 | 0.9 | 9.6 | 0.00 | 0.00 | 0.00 | 31 | 1010.4 |
| 20260508165515 | 58 | 249 | 5.2 | 9.6 | 0.00 | 0.00 | 0.00 | 31 | 1010.7 |
| 20260508165014 | 58 | 216 | 1.7 | 6.1 | 0.00 | 0.00 | 0.00 | 32 | 1010.6 |
| 20260508164531 | 58 | 184 | 0.9 | 5.2 | 0.00 | 0.00 | 0.00 | 33 | 1010.6 |
| 20260508164014 | 57 | 172 | 1.7 | 7.8 | 0.00 | 0.00 | 0.00 | 32 | 1010.7 |
| 20260508163514 | 57 | 237 | 3.5 | 7.8 | 0.00 | 0.00 | 0.00 | 33 | 1010.8 |
| 20260508163030 | 58 | 232 | 1.7 | 5.2 | 0.00 | 0.00 | 0.00 | 33 | 1010.9 |
| 20260508162514 | 58 | 0 | 0.9 | 7.8 | 0.00 | 0.00 | 0.00 | 30 | 1010.9 |
| 20260508162013 | 58 | 163 | 1.7 | 8.7 | 0.00 | 0.00 | 0.00 | 32 | 1010.9 |
| 20260508161533 | 57 | 284 | 3.5 | 9.6 | 0.00 | 0.00 | 0.00 | 33 | 1011.0 |
| 20260508161015 | 57 | 234 | 2.6 | 9.6 | 0.00 | 0.00 | 0.00 | 31 | 1010.9 |
| 20260508160514 | 56 | 218 | 3.5 | 9.6 | 0.00 | 0.00 | 0.00 | 31 | 1011.0 |
| 20260508160031 | 56 | 238 | 2.6 | 9.6 | 0.00 | 0.00 | 0.00 | 32 | 1011.1 |
| 20260508155519 | 56 | 233 | 3.5 | 8.7 | 0.00 | 0.00 | 0.00 | 31 | 1011.2 |
| 20260508155015 | 56 | 217 | 3.5 | 8.7 | 0.00 | 0.00 | 0.00 | 32 | 1011.3 |
| 20260508154530 | 56 | 211 | 1.7 | 7.0 | 0.00 | 0.00 | 0.00 | 33 | 1011.2 |
| 20260508154014 | 57 | 170 | 2.6 | 6.1 | 0.00 | 0.00 | 0.00 | 35 | 1011.2 |
| 20260508153516 | 57 | 175 | 0.0 | 3.5 | 0.00 | 0.00 | 0.00 | 35 | 1011.2 |
| 20260508153034 | 56 | 264 | 1.7 | 5.2 | 0.00 | 0.00 | 0.00 | 34 | 1011.2 |